Location: ??????
(42.0089°N, 44.3281°E)
Time: 19:07:45
(UTC+00:00)

Okean 1-7 Rocket - Pass Details

Date: 02 June 2022
Orbit: 616 x 648 km, 82.5° (Epoch: 30 June)

Event Time Altitude Azimuth Distance (km) Brightness Sun altitude
Exits shadow 00:27:45 12° 210° (SSW) 1,841 5.4 -10.0°
Maximum altitude 00:31:35 44° 282° (WNW) 854 4.0 -9.5°
Drops below altitude 10° 00:35:48 10° 355° (N) 1,988 6.7 -8.9°
Sets 00:38:07 0° 2° (N) 2,898 7.7 -8.5°
